Location: Unspecified
(41.9031°N, 12.4386°E)
Time: 17:32:54
(UTC+02:00)

ISS - Pass Details

Date: 31 May 2020
Orbit: 417 x 420 km, 51.6° (Epoch: 26 May)

Event Time Altitude Azimuth Distance (km) Brightness Sun altitude
Rises 22:23:47 0° 302° (WNW) 2,365 1.5 -15.6°
Reaches altitude 10° 22:25:54 10° 298° (WNW) 1,499 0.1 -15.9°
Maximum altitude 22:29:12 58° 219° (SW) 494 -3.6 -16.2°
Enters shadow 22:30:04 41° 164° (SSE) 616 -3.4 -16.3°
